Naples, Italy

1:38 PM CEST on June 27, 2017 (GMT +0200)
Capodichino Mil

Weather History for LIRN - October, 2014

Change the Weather History Date:

Thursday, October 16, 2014

  Actual Average Record
Temperature  
Mean Temperature 74 °F -  
Max Temperature 79 °F 67 °F 79 °F (2014)
Min Temperature 70 °F 49 °F 48 °F (1997)
Cooling Degree Days 10    
Growing Degree Days 24 (Base 50)    
Moisture  
Dew Point 65 °F    
Average Humidity 71    
Maximum Humidity 83    
Minimum Humidity 52    
Precipitation  
Precipitation 0.00 in 0.19 in - ()
Sea Level Pressure  
Sea Level Pressure 30.02 in    
Wind  
Wind Speed 7 mph ()    
Max Wind Speed 12 mph    
Max Gust Speed -    
Visibility 7.6 miles    
Events      
Averages and records for this station are not official NWS values.
T = Trace of Precipitation, MM = Missing Value Source: Averaged Metar Reports

Daily Weather History Graph

Daily Weather History Graph

Search for Another Location

Airport or City:

Trip Planner

Search our weather history database for the weather conditions in past years. The results will help you decide how hot, cold, wet, or windy it might be!

Date:

Astronomy

Oct. 16, 2014 Rise Set
Actual Time 7:14 AM CEST 6:21 PM CEST
Civil Twilight 6:47 AM CEST 6:48 PM CEST
Nautical Twilight 6:15 AM CEST 7:20 PM CEST
Astronomical Twilight 5:43 AM CEST 7:52 PM CEST
Moon 12:07 AM CEST (10/16) 2:24 PM CEST (10/16)
Length of Visible Light 12h 01m
Length of Day
11h 06m
Last Quarter, 44% of the Moon is Illuminated
Oct 16
Last Quarter
Oct 23
New
Oct 31
First Quarter
Nov 6
Full
Nov 14
Last Quarter

Hourly Weather History & Observations

Time (CEST) Temp. Dew Point Humidity Pressure Visibility Wind Dir Wind Speed Gust Speed Precip Events Conditions
12:20 AM 73.4 °F 68.0 °F 83% 29.95 in - SSW 6.9 mph - N/A   Clear
12:50 AM 73.4 °F 68.0 °F 83% 29.95 in - SSW 5.8 mph - N/A   Clear
1:20 AM 73.4 °F 68.0 °F 83% 29.95 in - SSW 4.6 mph - N/A   Clear
1:50 AM 73.4 °F 68.0 °F 83% 29.95 in - SSW 3.5 mph - N/A   Clear
2:00 AM 72 °F 67 °F 79% 29.96 in 6 mi SSW 4.6 mph - -   Clear
2:20 AM 73.4 °F 66.2 °F 78% 29.95 in - SSW 4.6 mph - N/A   Clear
2:50 AM 71.6 °F 64.4 °F 78% 29.95 in - SW 4.6 mph - N/A   Clear
3:20 AM 71.6 °F 62.6 °F 73% 29.95 in - WSW 6.9 mph - N/A   Clear
3:50 AM 71.6 °F 60.8 °F 69% 29.95 in - WSW 8.1 mph - N/A   Clear
4:20 AM 73.4 °F 64.4 °F 73% 29.95 in - WSW 9.2 mph - N/A   Clear
4:50 AM 73.4 °F 64.4 °F 73% 29.98 in - SW 8.1 mph - N/A   Clear
5:00 AM 74 °F 66 °F 68% 29.97 in 16 mi SW 8.1 mph - -  
5:20 AM 73.4 °F 66.2 °F 78% 29.98 in 6.2 mi SW 5.8 mph - N/A   Scattered Clouds
5:50 AM 73.4 °F 64.4 °F 73% 29.98 in 6.2 mi SW 6.9 mph - N/A   Scattered Clouds
6:20 AM 73.4 °F 64.4 °F 73% 29.98 in 6.2 mi SW 5.8 mph - N/A   Scattered Clouds
6:50 AM 73.4 °F 66.2 °F 78% 29.98 in 6.2 mi SW 8.1 mph - N/A   Scattered Clouds
7:20 AM 73.4 °F 66.2 °F 78% 29.98 in 6.2 mi SW 9.2 mph - N/A   Scattered Clouds
7:50 AM 73.4 °F 66.2 °F 78% 29.98 in 6.2 mi WSW 8.1 mph - N/A   Scattered Clouds
8:00 AM 73 °F 67 °F 75% 30.00 in 12 mi WSW 8.1 mph - -   Mostly Cloudy
8:20 AM 73.4 °F 66.2 °F 78% 30.01 in 6.2 mi SW 10.4 mph - N/A   Partly Cloudy
8:50 AM 75.2 °F 66.2 °F 73% 30.01 in 6.2 mi WSW 10.4 mph - N/A   Partly Cloudy
9:20 AM 75.2 °F 66.2 °F 73% 30.01 in 6.2 mi WSW 11.5 mph - N/A   Partly Cloudy
9:50 AM 75.2 °F 66.2 °F 73% 30.01 in 6.2 mi SW 8.1 mph - N/A   Scattered Clouds
10:20 AM 75.2 °F 64.4 °F 69% 30.04 in 6.2 mi SW 9.2 mph - N/A   Mostly Cloudy
10:50 AM 77.0 °F 64.4 °F 65% 30.04 in 6.2 mi SW 10.4 mph - N/A   Mostly Cloudy
11:00 AM 77 °F 64 °F 56% 30.03 in 19 mi SW 9.2 mph - -   Mostly Cloudy
11:20 AM 77.0 °F 64.4 °F 65% 30.04 in 6.2 mi SSW 9.2 mph - N/A   Scattered Clouds
11:50 AM 78.8 °F 64.4 °F 61% 30.04 in 6.2 mi SSW 8.1 mph - N/A   Scattered Clouds
12:20 PM 77.0 °F 66.2 °F 69% 30.04 in 6.2 mi SSW 9.2 mph - N/A   Scattered Clouds
12:50 PM 78.8 °F 64.4 °F 61% 30.04 in 6.2 mi SW 9.2 mph - N/A   Mostly Cloudy
1:20 PM 78.8 °F 64.4 °F 61% 30.04 in 6.2 mi West 11.5 mph - N/A   Mostly Cloudy
1:50 PM 78.8 °F 64.4 °F 61% 30.04 in 6.2 mi SSW 10.4 mph - N/A   Mostly Cloudy
2:00 PM 77 °F 65 °F 58% 30.04 in 16 mi SSW 8.1 mph - -   Mostly Cloudy
2:20 PM 77.0 °F 64.4 °F 65% 30.04 in 6.2 mi SW 8.1 mph - N/A   Mostly Cloudy
2:50 PM 77.0 °F 64.4 °F 65% 30.04 in 6.2 mi SSW 8.1 mph - N/A   Scattered Clouds
3:20 PM 78.8 °F 64.4 °F 61% 30.04 in 6.2 mi SSW 8.1 mph - N/A   Scattered Clouds
3:50 PM 77.0 °F 66.2 °F 69% 30.04 in 6.2 mi South 9.2 mph - N/A   Scattered Clouds
4:50 PM 75.2 °F 60.8 °F 61% 30.04 in 6.2 mi WSW 9.2 mph - N/A   Partly Cloudy
5:00 PM 76 °F 62 °F 52% 30.04 in 16 mi West 10.4 mph - -   Scattered Clouds
5:20 PM 75.2 °F 62.6 °F 65% 30.04 in 6.2 mi West 10.4 mph - N/A   Partly Cloudy
5:50 PM 73.4 °F 60.8 °F 65% 30.06 in 6.2 mi West 8.1 mph - N/A   Partly Cloudy
6:20 PM 73.4 °F 62.6 °F 69% 30.06 in 6.2 mi SW 5.8 mph - N/A   Partly Cloudy
6:50 PM 73.4 °F 62.6 °F 69% 30.06 in 6.2 mi WSW 8.1 mph - N/A   Partly Cloudy
7:20 PM 73.4 °F 64.4 °F 73% 30.06 in 6.2 mi WSW 6.9 mph - N/A   Partly Cloudy
7:50 PM 73.4 °F 64.4 °F 73% 30.06 in 6.2 mi SW 5.8 mph - N/A   Partly Cloudy
8:00 PM 73 °F 64 °F 67% 30.09 in 16 mi SW 5.8 mph - -   Scattered Clouds
8:20 PM 73.4 °F 64.4 °F 73% 30.09 in 6.2 mi SSW 4.6 mph - N/A   Partly Cloudy
8:50 PM 73.4 °F 64.4 °F 73% 30.09 in 6.2 mi SSW 4.6 mph - N/A   Partly Cloudy
9:20 PM 73.4 °F 64.4 °F 73% 30.09 in 6.2 mi SSW 4.6 mph - N/A   Partly Cloudy
9:50 PM 71.6 °F 64.4 °F 78% 30.09 in 6.2 mi Variable 2.3 mph - N/A   Partly Cloudy
10:50 PM 71.6 °F 64.4 °F 78% 30.09 in 6.2 mi SSW 3.5 mph - N/A   Partly Cloudy
11:00 PM 72 °F 65 °F 74% 30.11 in 12 mi SSW 3.5 mph - -   Scattered Clouds
11:20 PM 71.6 °F 66.2 °F 83% 30.09 in 6.2 mi SSW 3.5 mph - N/A   Partly Cloudy
11:50 PM 71.6 °F 66.2 °F 83% 30.09 in 6.2 mi SSW 3.5 mph - N/A   Partly Cloudy